Content
SEND FEEDBACK

Daily
Averages
Monthly
Summary
United States of America

CHESTERFIELD, MISSOURI


Home > North America > United States > Missouri
Elevation: 170 meters     Latitude: 38 41N     Longitude: 090 31W

WEATHER
 
SELECT A DAY
Number of Records: 203,371;   Date Range: 1/1/95 - 7/23/14
 
SHARE

PRINT THIS DATA

[ ← Previous Day ]
WEATHER ALMANAC - 26 JANUARY, 2013
[ Next Day → ]
[ °F ]   °C
Weather ElementAverageHighLow
Temperature-0.3 °C3.3 °C (2:51 pm)-4.4 °C (6:51 am)
Dewpoint-9.8 °C-6.7 °C (1:51 am)-12.2 °C (10:51 am)
Humidity50.7 %69 % (7:51 am)32 % (2:51 pm)
Barometer1028.1 hPa1030.5 hPa (9:51 am)1025.7 hPa (1:51 am)
Wind Speed10.9 km/h20.4 km/h (6:51 pm)
Weather ElementAverage
Visibility16.1 km
Wind DirectionESE (116.1 °)

Weather ElementTotal
Precipitation---
Heating Degree Days18.9 (Base 18.3)
Averaged from 23 records on 26 January, 2013
WEATHER CONDITIONS BREAKOUT
WIND DIRECTION BREAKOUT
WEATHER BY HOUR - 26 JANUARY, 2013
[ °F ]   °C
Local TimeTemperatureDewpointHumidityBarometerVisibilityWind DirectionWind SpeedGust SpeedPrecipitationEventsConditions
1:51 AM0.6 °C-6.7 °C59 %1025.7 hPa16.1 kmNNW (330°)9.3 km/hMostly Cloudy
2:51 AM0.6 °C-6.7 °C59 %1025.7 hPa16.1 kmNorth (360°)13 km/hMostly Cloudy
3:51 AM-0.6 °C-6.7 °C64 %1025.7 hPa16.1 kmNorth (10°)14.8 km/hMostly Cloudy
4:51 AM-1.7 °C-8.3 °C61 %1026.4 hPa16.1 kmNorth (10°)9.3 km/hMostly Cloudy
5:51 AM-3.3 °C-8.9 °C66 %1027.4 hPa16.1 kmNNW (340°)13 km/hMostly Cloudy
6:51 AM-4.4 °C-10 °C65 %1028.8 hPa16.1 kmNNW (330°)9.3 km/hMostly Cloudy
7:51 AM-4.4 °C-9.4 °C69 %1029.5 hPa16.1 kmNorth (10°)9.3 km/hMostly Cloudy
8:51 AM-3.3 °C-11.7 °C53 %1030.1 hPa16.1 kmNNE (30°)9.3 km/hScattered Clouds
9:51 AM-2.8 °C-11.7 °C51 %1030.5 hPa16.1 kmENE (60°)5.6 km/hScattered Clouds
10:51 AM-1.1 °C-12.2 °C43 %1030.5 hPa16.1 kmCalmScattered Clouds
11:51 AM0 °C-12.2 °C40 %1030.5 hPa16.1 kmVariable5.6 km/hPartly Cloudy
12:51 PM2.2 °C-11.7 °C36 %1029.5 hPa16.1 kmVariable5.6 km/hPartly Cloudy
1:51 PM2.8 °C-12.2 °C33 %1028.1 hPa16.1 kmEast (90°)7.4 km/hPartly Cloudy
2:51 PM3.3 °C-12.2 °C32 %1027.8 hPa16.1 kmESE (120°)9.3 km/hPartly Cloudy
3:51 PM3.3 °C-11.1 °C35 %1027.4 hPa16.1 kmESE (110°)9.3 km/hPartly Cloudy
4:51 PM2.8 °C-11.1 °C36 %1027.8 hPa16.1 kmEast (100°)11.1 km/hScattered Clouds
5:51 PM1.7 °C-10 °C42 %1028.1 hPa16.1 kmEast (90°)14.8 km/hScattered Clouds
6:51 PM1.1 °C-9.4 °C46 %1028.4 hPa16.1 kmESE (110°)20.4 km/hMostly Cloudy
7:51 PM0.6 °C-8.9 °C50 %1028.1 hPa16.1 kmESE (110°)20.4 km/hMostly Cloudy
8:51 PM-1.1 °C-9.4 °C54 %1028.1 hPa16.1 kmESE (110°)14.8 km/hScattered Clouds
9:51 PM-1.1 °C-8.9 °C56 %1028.1 hPa16.1 kmESE (110°)14.8 km/hPartly Cloudy
10:51 PM-1.1 °C-8.9 °C56 %1028.1 hPa16.1 kmESE (120°)13 km/hPartly Cloudy
11:51 PM-1.7 °C-8.3 °C61 %1027.8 hPa16.1 kmESE (120°)13 km/hPartly Cloudy
Hourly data recorded from KSTL, located 0 kilometers away from Chesterfield, Missouri







STORIES FROM OUR PARTNERS